TIANLIAN 2-03

Last updated on Thu Oct 30 2025 00:02:52 GMT+0000 (Coordinated Universal Time)

1 53100U 22078A 25302.25910000 .00000082 00000+0 00000+0 0 9995 2 53100 0.1166 33.1310 0003185 217.9712 250.6388 1.00271606 12235
UTC large
Height (km)
Speed (km/s)
/
Latitude / Longitude
Inclination (degrees)
Orbital Period (minutes)
Azimuth
Elevation
Range (km)
Doppler Factor

Next 0 passes for location: London (51.5072 / 0.1276)

Sorry there are no passes over London.